Location: Kikino
(54.4440°N, 112.0940°W)
Time: 19:49:38
(UTC+00:00)

A-11 Canister half - Pass Details

Date: 28 May 2024
Orbit: 1525 x 1683 km, 47.3° (Epoch: 12 June)

Event Time Altitude Azimuth Distance (km) Brightness Sun altitude
Rises 09:00:31 0° 282° (WNW) 4,749 11.5 -11.3°
Reaches altitude 10° 09:03:56 10° 274° (W) 3,784 10.9 -11.1°
Maximum altitude 09:12:06 33° 215° (SW) 2,472 9.6 -10.6°
Drops below altitude 10° 09:20:29 10° 157° (SSE) 3,882 10.7 -10.1°
Sets 09:24:03 0° 148° (SSE) 4,886 11.3 -9.9°
